Tracking 19242 objects as of 16-Aug-2018
HD Live streaming from Space Station
objects crossing your sky now

MINOTAUR-C DEB

Track MINOTAUR-C DEB now!
10-day predictions


NORAD ID: 42993
Int'l Code: 2017-068G
Perigee: 505.5 km
Apogee: 529.3 km
Inclination: 97.4 °
Period: 94.8 minutes
Semi major axis: 6888 km
RCS: Unknown
Launch date: October 31, 2017
Source: United States (US)
Launch site: AIR FORCE WESTERN TEST RANGE (AFWTR)

Note: This is SATELLITE DEBRIS
aabbcc
Your satellite tracking list
Your tracking list is empty




NASA's NSSDC Master Catalog

Two Line Element Set (TLE):
1 42993U 17068G   18227.84768447  .00000618  00000-0  33067-4 0  9995
2 42993  97.3731 339.2883 0017267 301.1615  58.7926 15.18549477 43684
Source of the keplerian elements: AFSPC